Time,TemperatureF,DewpointF,PressureIn,WindDirection,WindDirectionDegrees,WindSpeedMPH,WindSpeedGustMPH,Humidity,HourlyPrecipIn,Conditions,Clouds,dailyrainin,SoftwareType,DateUTC
2013-04-01 00:09:00,46.2,42.0,29.78,ESE,117,0.0,0.0,85,0.00,CLR,,0.00,WeatherDisplay:10.37,2013-04-01 04:09:00,
2013-04-01 00:19:00,46.6,42.3,29.78,SE,129,0.0,0.0,85,0.00,CLR,,0.00,WeatherDisplay:10.37,2013-04-01 04:19:00,
2013-04-01 00:29:00,46.6,42.0,29.78,SE,141,0.0,0.0,84,0.00,CLR,,0.00,WeatherDisplay:10.37,2013-04-01 04:29:00,
2013-04-01 00:39:00,46.4,42.1,29.78,SSE,165,0.0,0.0,85,0.00,CLR,,0.00,WeatherDisplay:10.37,2013-04-01 04:39:00,
2013-04-01 00:49:00,46.3,42.1,29.78,SSE,148,0.0,0.0,85,0.00,CLR,,0.00,WeatherDisplay:10.37,2013-04-01 04:49:00,
2013-04-01 00:59:00,45.7,41.1,29.78,WNW,295,0.0,2.0,84,0.00,CLR,,0.00,WeatherDisplay:10.37,2013-04-01 04:59:00,
2013-04-01 01:09:00,45.1,40.9,29.78,NNW,333,0.0,2.0,85,0.00,CLR,,0.00,WeatherDisplay:10.37,2013-04-01 05:09:00,
2013-04-01 01:19:00,45.0,40.7,29.78,WNW,284,0.0,2.0,85,0.00,CLR,,0.00,WeatherDisplay:10.37,2013-04-01 05:19:00,
2013-04-01 01:29:00,44.6,40.4,29.81,NNW,335,0.0,2.0,85,0.00,CLR,,0.00,WeatherDisplay:10.37,2013-04-01 05:29:00,
2013-04-01 01:39:00,44.2,40.0,29.78,NW,305,0.0,0.0,85,0.00,CLR,,0.00,WeatherDisplay:10.37,2013-04-01 05:39:00,
2013-04-01 01:49:00,43.8,39.6,29.78,NW,321,0.0,0.0,85,0.00,CLR,,0.00,WeatherDisplay:10.37,2013-04-01 05:49:00,
2013-04-01 01:59:00,43.3,39.1,29.81,NNW,335,0.0,0.0,85,0.00,CLR,,0.00,WeatherDisplay:10.37,2013-04-01 05:59:00,
2013-04-01 02:09:00,43.5,39.3,29.81,ESE,107,0.0,0.0,85,0.00,CLR,,0.00,WeatherDisplay:10.37,2013-04-01 06:09:00,
2013-04-01 02:19:00,43.5,39.3,29.81,SE,143,0.0,0.0,85,0.00,CLR,,0.00,WeatherDisplay:10.37,2013-04-01 06:19:00,
2013-04-01 02:29:00,43.4,39.2,29.78,SE,143,0.0,0.0,85,0.00,CLR,,0.00,WeatherDisplay:10.37,2013-04-01 06:29:00,
2013-04-01 02:39:00,43.7,39.8,29.78,SE,143,0.0,0.0,86,0.00,CLR,,0.00,WeatherDisplay:10.37,2013-04-01 06:39:00,
2013-04-01 02:49:00,43.4,39.2,29.78,SE,142,0.0,0.0,85,0.00,CLR,,0.00,WeatherDisplay:10.37,2013-04-01 06:49:00,
2013-04-01 02:59:00,42.8,38.6,29.78,SE,140,0.0,0.0,85,0.00,CLR,,0.00,WeatherDisplay:10.37,2013-04-01 06:59:00,
2013-04-01 03:09:00,42.4,38.2,29.78,SE,140,0.0,0.0,85,0.00,CLR,,0.00,WeatherDisplay:10.37,2013-04-01 07:09:00,
2013-04-01 03:19:00,42.1,37.9,29.78,NE,35,0.0,0.0,85,0.00,CLR,,0.00,WeatherDisplay:10.37,2013-04-01 07:19:00,
2013-04-01 03:29:00,41.9,37.7,29.78,NE,41,0.0,0.0,85,0.00,CLR,,0.00,WeatherDisplay:10.37,2013-04-01 07:29:00,
2013-04-01 03:39:00,42.4,38.2,29.81,ESE,116,0.0,3.0,85,0.00,CLR,,0.00,WeatherDisplay:10.37,2013-04-01 07:39:00,
2013-04-01 03:49:00,41.4,36.6,29.81,East,95,0.0,0.0,83,0.00,CLR,,0.00,WeatherDisplay:10.37,2013-04-01 07:49:00,
2013-04-01 03:59:00,41.0,36.2,29.78,East,96,0.0,0.0,83,0.00,CLR,,0.00,WeatherDisplay:10.37,2013-04-01 07:59:00,
2013-04-01 04:09:00,41.8,37.0,29.78,ESE,102,0.0,0.0,83,0.00,CLR,,0.00,WeatherDisplay:10.37,2013-04-01 08:09:00,
2013-04-01 04:19:00,42.4,37.6,29.78,ESE,106,0.0,2.0,83,0.00,CLR,,0.00,WeatherDisplay:10.37,2013-04-01 08:19:00,
2013-04-01 04:29:00,43.5,38.7,29.78,SE,128,0.0,2.0,83,0.00,CLR,,0.00,WeatherDisplay:10.37,2013-04-01 08:29:00,
2013-04-01 04:39:00,44.8,39.0,29.78,ESE,123,0.0,4.0,80,0.00,CLR,,0.00,WeatherDisplay:10.37,2013-04-01 08:39:00,
2013-04-01 04:49:00,45.8,37.6,29.78,SE,131,0.0,4.0,73,0.00,CLR,,0.00,WeatherDisplay:10.37,2013-04-01 08:49:00,
2013-04-01 04:59:00,45.8,34.7,29.78,SE,142,0.0,4.0,65,0.00,CLR,,0.00,WeatherDisplay:10.37,2013-04-01 08:59:00,
2013-04-01 05:09:00,44.2,29.9,29.78,East,95,0.0,0.0,57,0.00,CLR,,0.00,WeatherDisplay:10.37,2013-04-01 09:09:00,
2013-04-01 05:19:00,44.4,30.6,29.78,ESE,111,0.0,2.0,58,0.00,CLR,,0.00,WeatherDisplay:10.37,2013-04-01 09:19:00,
2013-04-01 05:29:00,44.8,30.0,29.78,SE,135,0.0,0.0,56,0.00,CLR,,0.00,WeatherDisplay:10.37,2013-04-01 09:29:00,
2013-04-01 05:39:00,44.8,29.6,29.78,ESE,121,0.0,0.0,55,0.00,CLR,,0.00,WeatherDisplay:10.37,2013-04-01 09:39:00,
2013-04-01 05:49:00,45.1,29.9,29.78,SE,127,0.0,0.0,55,0.00,CLR,,0.00,WeatherDisplay:10.37,2013-04-01 09:49:00,
2013-04-01 05:59:00,45.7,30.4,29.78,East,87,0.0,0.0,55,0.00,CLR,,0.00,WeatherDisplay:10.37,2013-04-01 09:59:00,
2013-04-01 06:09:00,45.7,30.9,29.78,NNW,331,0.0,0.0,56,0.00,CLR,,0.00,WeatherDisplay:10.37,2013-04-01 10:09:00,
2013-04-01 06:19:00,45.5,31.6,29.78,NNW,335,0.0,0.0,58,0.00,CLR,,0.00,WeatherDisplay:10.37,2013-04-01 10:19:00,
2013-04-01 06:29:00,45.3,31.0,29.78,NNW,336,0.0,0.0,57,0.00,CLR,,0.00,WeatherDisplay:10.37,2013-04-01 10:29:00,
2013-04-01 06:39:00,45.5,31.6,29.78,SW,235,0.0,0.0,58,0.00,CLR,,0.00,WeatherDisplay:10.37,2013-04-01 10:39:00,
2013-04-01 06:49:00,45.3,31.4,29.78,NW,305,0.0,0.0,58,0.00,CLR,,0.00,WeatherDisplay:10.37,2013-04-01 10:49:00,
2013-04-01 06:59:00,45.0,31.1,29.78,WNW,288,0.0,2.0,58,0.00,CLR,,0.00,WeatherDisplay:10.37,2013-04-01 10:59:00,
2013-04-01 07:09:00,45.8,31.8,29.78,West,269,0.0,4.0,58,0.00,CLR,,0.00,WeatherDisplay:10.37,2013-04-01 11:09:00,
2013-04-01 07:19:00,46.4,30.6,29.78,West,273,0.0,6.0,54,0.00,CLR,,0.00,WeatherDisplay:10.37,2013-04-01 11:19:00,
2013-04-01 07:29:00,46.7,30.0,29.78,WSW,249,0.0,5.0,52,0.00,CLR,,0.00,WeatherDisplay:10.37,2013-04-01 11:29:00,
2013-04-01 07:39:00,46.8,29.6,29.78,SSE,164,0.0,4.0,51,0.00,CLR,,0.00,WeatherDisplay:10.37,2013-04-01 11:39:00,
2013-04-01 07:49:00,46.8,29.1,29.78,WSW,254,0.0,3.0,50,0.00,CLR,,0.00,WeatherDisplay:10.37,2013-04-01 11:49:00,
2013-04-01 07:59:00,47.5,28.7,29.78,WSW,256,0.0,6.0,48,0.00,CLR,,0.00,WeatherDisplay:10.37,2013-04-01 11:59:00,
2013-04-01 08:09:00,47.9,27.0,29.78,SSW,202,1.0,7.0,44,0.00,CLR,,0.00,WeatherDisplay:10.37,2013-04-01 12:09:00,
2013-04-01 08:19:00,48.4,25.2,29.78,WSW,244,0.0,6.0,40,0.00,CLR,,0.00,WeatherDisplay:10.37,2013-04-01 12:19:00,
2013-04-01 08:29:00,48.6,25.3,29.78,WSW,256,2.0,6.0,40,0.00,CLR,,0.00,WeatherDisplay:10.37,2013-04-01 12:29:00,
2013-04-01 08:39:00,48.9,25.6,29.78,WSW,239,2.0,6.0,40,0.00,CLR,,0.00,WeatherDisplay:10.37,2013-04-01 12:39:00,
2013-04-01 08:49:00,49.9,26.5,29.78,West,280,3.0,11.0,40,0.00,CLR,,0.00,WeatherDisplay:10.37,2013-04-01 12:49:00,
2013-04-01 08:59:00,50.4,26.9,29.78,West,259,3.0,8.0,40,0.00,CLR,,0.00,WeatherDisplay:10.37,2013-04-01 12:59:00,
2013-04-01 09:09:00,51.5,27.3,29.78,WSW,245,3.0,8.0,39,0.00,CLR,,0.00,WeatherDisplay:10.37,2013-04-01 13:09:00,
2013-04-01 09:19:00,51.8,27.0,29.78,SW,232,3.0,9.0,38,0.00,CLR,,0.00,WeatherDisplay:10.37,2013-04-01 13:19:00,
2013-04-01 09:29:00,52.4,28.2,29.78,West,259,3.0,8.0,39,0.00,CLR,,0.00,WeatherDisplay:10.37,2013-04-01 13:29:00,
2013-04-01 09:39:00,52.0,26.5,29.78,West,259,3.0,8.0,37,0.00,CLR,,0.00,WeatherDisplay:10.37,2013-04-01 13:39:00,
2013-04-01 09:49:00,51.8,27.0,29.78,West,260,3.0,8.0,38,0.00,CLR,,0.00,WeatherDisplay:10.37,2013-04-01 13:49:00,
2013-04-01 09:59:00,51.6,27.5,29.78,WNW,301,5.0,8.0,39,0.00,CLR,,0.00,WeatherDisplay:10.37,2013-04-01 13:59:00,
2013-04-01 10:09:00,50.5,28.8,29.81,West,279,8.0,12.0,43,0.00,CLR,,0.00,WeatherDisplay:10.37,2013-04-01 14:09:00,
2013-04-01 10:19:00,50.5,31.6,29.81,West,277,7.0,15.0,48,0.00,CLR,,0.00,WeatherDisplay:10.37,2013-04-01 14:19:00,
2013-04-01 10:29:00,50.9,31.9,29.81,West,272,7.0,12.0,48,0.00,CLR,,0.00,WeatherDisplay:10.37,2013-04-01 14:29:00,
2013-04-01 10:39:00,51.2,32.7,29.81,West,277,8.0,14.0,49,0.00,CLR,,0.00,WeatherDisplay:10.37,2013-04-01 14:39:00,
2013-04-01 10:49:00,52.7,33.6,29.81,West,275,7.0,13.0,48,0.00,CLR,,0.00,WeatherDisplay:10.37,2013-04-01 14:49:00,
2013-04-01 10:59:00,54.4,32.9,29.81,West,272,8.0,15.0,44,0.00,CLR,,0.00,WeatherDisplay:10.37,2013-04-01 14:59:00,
2013-04-01 11:09:00,55.6,31.0,29.78,West,269,7.0,13.0,39,0.00,CLR,,0.00,WeatherDisplay:10.37,2013-04-01 15:09:00,
2013-04-01 11:19:00,56.1,28.8,29.78,West,273,8.0,15.0,35,0.00,CLR,,0.00,WeatherDisplay:10.37,2013-04-01 15:19:00,
2013-04-01 11:29:00,56.5,29.9,29.78,WSW,253,10.0,15.0,36,0.00,CLR,,0.00,WeatherDisplay:10.37,2013-04-01 15:29:00,
2013-04-01 11:39:00,57.0,28.2,29.78,West,266,9.0,15.0,33,0.00,CLR,,0.00,WeatherDisplay:10.37,2013-04-01 15:39:00,
2013-04-01 11:49:00,57.4,23.6,29.78,West,279,13.0,22.0,27,0.00,CLR,,0.00,WeatherDisplay:10.37,2013-04-01 15:49:00,
2013-04-01 11:59:00,57.2,22.6,29.78,West,278,15.0,25.0,26,0.00,CLR,,0.00,WeatherDisplay:10.37,2013-04-01 15:59:00,
2013-04-01 12:09:00,55.7,21.3,29.78,West,273,14.0,26.0,26,0.00,CLR,,0.00,WeatherDisplay:10.37,2013-04-01 16:09:00,
2013-04-01 12:19:00,55.0,21.6,29.78,West,281,12.0,24.0,27,0.00,CLR,,0.00,WeatherDisplay:10.37,2013-04-01 16:19:00,
2013-04-01 12:29:00,54.9,20.6,29.78,WNW,286,9.0,17.0,26,0.00,CLR,,0.00,WeatherDisplay:10.37,2013-04-01 16:29:00,
2013-04-01 12:39:00,53.3,21.8,29.81,WNW,293,9.0,18.0,29,0.00,CLR,,0.00,WeatherDisplay:10.37,2013-04-01 16:39:00,
2013-04-01 12:49:00,51.1,25.7,29.81,NW,313,7.0,17.0,37,0.00,CLR,,0.00,WeatherDisplay:10.37,2013-04-01 16:49:00,
2013-04-01 12:59:00,50.4,25.7,29.81,NW,317,12.0,20.0,38,0.00,CLR,,0.00,WeatherDisplay:10.37,2013-04-01 16:59:00,
2013-04-01 13:09:00,50.7,26.0,29.81,NW,316,9.0,20.0,38,0.00,CLR,,0.00,WeatherDisplay:10.37,2013-04-01 17:09:00,
2013-04-01 13:19:00,51.8,25.7,29.81,NW,306,10.0,18.0,36,0.00,CLR,,0.00,WeatherDisplay:10.37,2013-04-01 17:19:00,
2013-04-01 13:29:00,52.3,26.1,29.81,NW,311,12.0,21.0,36,0.00,CLR,,0.00,WeatherDisplay:10.37,2013-04-01 17:29:00,
2013-04-01 13:39:00,51.4,25.3,29.81,NW,323,10.0,22.0,36,0.00,CLR,,0.00,WeatherDisplay:10.37,2013-04-01 17:39:00,
2013-04-01 13:49:00,51.1,21.5,29.81,WNW,297,8.0,20.0,31,0.00,CLR,,0.00,WeatherDisplay:10.37,2013-04-01 17:49:00,
2013-04-01 13:59:00,50.4,20.1,29.81,WNW,283,9.0,17.0,30,0.00,CLR,,0.00,WeatherDisplay:10.37,2013-04-01 17:59:00,
2013-04-01 14:09:00,50.5,19.4,29.81,NW,305,10.0,15.0,29,0.00,CLR,,0.00,WeatherDisplay:10.37,2013-04-01 18:09:00,
2013-04-01 14:19:00,50.4,19.3,29.81,NW,305,10.0,15.0,29,0.00,CLR,,0.00,WeatherDisplay:10.37,2013-04-01 18:19:00,
2013-04-01 14:29:00,50.0,18.9,29.84,NW,308,8.0,15.0,29,0.00,CLR,,0.00,WeatherDisplay:10.37,2013-04-01 18:29:00,
2013-04-01 14:39:00,49.6,17.8,29.84,West,280,14.0,18.0,28,0.00,CLR,,0.00,WeatherDisplay:10.37,2013-04-01 18:39:00,
2013-04-01 14:49:00,49.5,18.5,29.84,WNW,298,8.0,18.0,29,0.00,CLR,,0.00,WeatherDisplay:10.37,2013-04-01 18:49:00,
2013-04-01 14:59:00,49.8,18.0,29.84,WNW,294,10.0,23.0,28,0.00,CLR,,0.00,WeatherDisplay:10.37,2013-04-01 18:59:00,
2013-04-01 15:09:00,49.8,17.1,29.84,WNW,293,10.0,29.0,27,0.00,CLR,,0.00,WeatherDisplay:10.37,2013-04-01 19:09:00,
2013-04-01 15:19:00,49.4,16.8,29.84,West,279,14.0,22.0,27,0.00,CLR,,0.00,WeatherDisplay:10.37,2013-04-01 19:19:00,
2013-04-01 15:29:00,49.6,17.8,29.84,West,279,9.0,24.0,28,0.00,CLR,,0.00,WeatherDisplay:10.37,2013-04-01 19:29:00,
2013-04-01 15:39:00,50.0,17.3,29.84,WNW,295,13.0,22.0,27,0.00,CLR,,0.00,WeatherDisplay:10.37,2013-04-01 19:39:00,
2013-04-01 15:49:00,50.2,14.7,29.84,WNW,299,14.0,18.0,24,0.00,CLR,,0.00,WeatherDisplay:10.37,2013-04-01 19:49:00,
2013-04-01 15:59:00,49.8,16.3,29.84,West,281,12.0,22.0,26,0.00,CLR,,0.00,WeatherDisplay:10.37,2013-04-01 19:59:00,
2013-04-01 16:09:00,50.2,15.7,29.84,WNW,295,9.0,21.0,25,0.00,CLR,,0.00,WeatherDisplay:10.37,2013-04-01 20:09:00,
2013-04-01 16:19:00,50.1,14.6,29.84,WNW,285,15.0,22.0,24,0.00,CLR,,0.00,WeatherDisplay:10.37,2013-04-01 20:19:00,
2013-04-01 16:29:00,48.6,15.2,29.84,WNW,291,10.0,19.0,26,0.00,CLR,,0.00,WeatherDisplay:10.37,2013-04-01 20:29:00,
2013-04-01 16:39:00,48.4,15.0,29.87,WNW,296,12.0,20.0,26,0.00,CLR,,0.00,WeatherDisplay:10.37,2013-04-01 20:39:00,
2013-04-01 16:49:00,48.7,15.3,29.87,WNW,295,9.0,22.0,26,0.00,CLR,,0.00,WeatherDisplay:10.37,2013-04-01 20:49:00,
2013-04-01 16:59:00,48.6,13.4,29.87,NW,315,14.0,20.0,24,0.00,CLR,,0.00,WeatherDisplay:10.37,2013-04-01 20:59:00,
2013-04-01 17:09:00,47.3,15.0,29.87,WNW,297,8.0,20.0,27,0.00,CLR,,0.00,WeatherDisplay:10.37,2013-04-01 21:09:00,
2013-04-01 17:19:00,47.7,12.6,29.87,WNW,296,8.0,15.0,24,0.00,CLR,,0.00,WeatherDisplay:10.37,2013-04-01 21:19:00,
2013-04-01 17:29:00,47.2,12.2,29.87,NNW,327,10.0,17.0,24,0.00,CLR,,0.00,WeatherDisplay:10.37,2013-04-01 21:29:00,
2013-04-01 17:39:00,46.4,12.4,29.90,NW,306,8.0,13.0,25,0.00,CLR,,0.00,WeatherDisplay:10.37,2013-04-01 21:39:00,
2013-04-01 17:49:00,47.7,10.6,29.90,NW,315,9.0,18.0,22,0.00,CLR,,0.00,WeatherDisplay:10.37,2013-04-01 21:49:00,
2013-04-01 17:59:00,47.8,10.8,29.90,WNW,291,8.0,18.0,22,0.00,CLR,,0.00,WeatherDisplay:10.37,2013-04-01 21:59:00,
2013-04-01 18:09:00,47.3,7.0,29.90,WNW,293,8.0,17.0,19,0.00,CLR,,0.00,WeatherDisplay:10.37,2013-04-01 22:09:00,
2013-04-01 18:19:00,46.8,6.6,29.90,WNW,296,8.0,20.0,19,0.00,CLR,,0.00,WeatherDisplay:10.37,2013-04-01 22:19:00,
2013-04-01 18:29:00,45.7,6.8,29.90,WNW,291,7.0,18.0,20,0.00,CLR,,0.00,WeatherDisplay:10.37,2013-04-01 22:29:00,
2013-04-01 18:39:00,45.0,6.2,29.90,WNW,301,7.0,15.0,20,0.00,CLR,,0.00,WeatherDisplay:10.37,2013-04-01 22:39:00,
2013-04-01 18:49:00,44.4,5.8,29.90,WNW,300,9.0,12.0,20,0.00,CLR,,0.00,WeatherDisplay:10.37,2013-04-01 22:49:00,
2013-04-01 18:59:00,44.4,3.5,29.90,NW,307,8.0,12.0,18,0.00,CLR,,0.00,WeatherDisplay:10.37,2013-04-01 22:59:00,
2013-04-01 19:09:00,45.0,2.7,29.90,NW,310,7.0,13.0,17,0.00,CLR,,0.00,WeatherDisplay:10.37,2013-04-01 23:09:00,
2013-04-01 19:19:00,44.4,3.5,29.90,WNW,283,6.0,14.0,18,0.00,CLR,,0.00,WeatherDisplay:10.37,2013-04-01 23:19:00,
2013-04-01 19:29:00,43.7,2.9,29.93,WNW,291,7.0,12.0,18,0.00,CLR,,0.00,WeatherDisplay:10.37,2013-04-01 23:29:00,
2013-04-01 19:39:00,43.2,2.5,29.93,West,280,7.0,12.0,18,0.00,CLR,,0.00,WeatherDisplay:10.37,2013-04-01 23:39:00,
2013-04-01 19:49:00,42.8,2.2,29.93,WNW,298,5.0,8.0,18,0.00,CLR,,0.00,WeatherDisplay:10.37,2013-04-01 23:49:00,
2013-04-01 19:59:00,42.4,1.8,29.93,WNW,297,3.0,6.0,18,0.00,CLR,,0.00,WeatherDisplay:10.37,2013-04-01 23:59:00,
2013-04-01 20:09:00,42.3,1.7,29.93,WNW,295,0.0,6.0,18,0.00,CLR,,0.00,WeatherDisplay:10.37,2013-04-02 00:09:00,
2013-04-01 20:19:00,42.4,1.8,29.93,WNW,290,6.0,11.0,18,0.00,CLR,,0.00,WeatherDisplay:10.37,2013-04-02 00:19:00,
2013-04-01 20:29:00,42.4,1.8,29.93,WNW,286,3.0,10.0,18,0.00,CLR,,0.00,WeatherDisplay:10.37,2013-04-02 00:29:00,
2013-04-01 20:39:00,41.9,1.4,29.96,NW,311,3.0,6.0,18,0.00,CLR,,0.00,WeatherDisplay:10.37,2013-04-02 00:39:00,
2013-04-01 20:49:00,41.2,0.8,29.96,NW,311,6.0,8.0,18,0.00,CLR,,0.00,WeatherDisplay:10.37,2013-04-02 00:49:00,
2013-04-01 20:59:00,40.8,-2.0,29.96,WNW,291,1.0,6.0,16,0.00,CLR,,0.00,WeatherDisplay:10.37,2013-04-02 00:59:00,
2013-04-01 21:09:00,40.6,-2.2,29.96,WNW,287,3.0,8.0,16,0.00,CLR,,0.00,WeatherDisplay:10.37,2013-04-02 01:09:00,
2013-04-01 21:19:00,40.5,-2.3,29.96,WNW,300,2.0,8.0,16,0.00,CLR,,0.00,WeatherDisplay:10.37,2013-04-02 01:19:00,
2013-04-01 21:29:00,39.9,-2.7,29.96,NNW,328,2.0,6.0,16,0.00,CLR,,0.00,WeatherDisplay:10.37,2013-04-02 01:29:00,
2013-04-01 21:39:00,39.4,-3.2,29.96,NW,314,2.0,6.0,16,0.00,CLR,,0.00,WeatherDisplay:10.37,2013-04-02 01:39:00,
2013-04-01 21:49:00,38.8,-3.6,29.96,NW,313,0.0,4.0,16,0.00,CLR,,0.00,WeatherDisplay:10.37,2013-04-02 01:49:00,
2013-04-01 21:59:00,38.1,-4.2,29.99,NW,312,2.0,6.0,16,0.00,CLR,,0.00,WeatherDisplay:10.37,2013-04-02 01:59:00,
2013-04-01 22:09:00,37.2,-1.3,29.99,NNW,339,0.0,5.0,19,0.00,CLR,,0.00,WeatherDisplay:10.37,2013-04-02 02:09:00,
2013-04-01 22:19:00,36.7,-1.8,29.99,NW,326,0.0,4.0,19,0.00,CLR,,0.00,WeatherDisplay:10.37,2013-04-02 02:19:00,
2013-04-01 22:29:00,35.5,-1.7,29.99,NNW,327,0.0,0.0,20,0.00,CLR,,0.00,WeatherDisplay:10.37,2013-04-02 02:29:00,
2013-04-01 22:39:00,34.0,-0.9,29.99,NNE,12,0.0,0.0,22,0.00,CLR,,0.00,WeatherDisplay:10.37,2013-04-02 02:39:00,
2013-04-01 22:49:00,35.3,0.1,29.99,NW,317,0.0,5.0,22,0.00,CLR,,0.00,WeatherDisplay:10.37,2013-04-02 02:49:00,
2013-04-01 22:59:00,35.6,0.4,29.99,WNW,295,2.0,4.0,22,0.00,CLR,,0.00,WeatherDisplay:10.37,2013-04-02 02:59:00,
2013-04-01 23:09:00,35.8,0.6,29.99,WNW,302,0.0,5.0,22,0.00,CLR,,0.00,WeatherDisplay:10.37,2013-04-02 03:09:00,
2013-04-01 23:19:00,35.6,-1.6,29.99,WNW,294,0.0,0.0,20,0.00,CLR,,0.00,WeatherDisplay:10.37,2013-04-02 03:19:00,
2013-04-01 23:29:00,34.7,-2.4,29.99,NW,306,0.0,0.0,20,0.00,CLR,,0.00,WeatherDisplay:10.37,2013-04-02 03:29:00,
2013-04-01 23:39:00,33.7,-0.3,29.99,NW,306,0.0,0.0,23,0.00,CLR,,0.00,WeatherDisplay:10.37,2013-04-02 03:39:00,
2013-04-01 23:49:00,32.2,0.3,29.99,NW,306,0.0,0.0,25,0.00,CLR,,0.00,WeatherDisplay:10.37,2013-04-02 03:49:00,
2013-04-01 23:59:00,31.2,1.8,29.99,NW,306,0.0,0.0,28,0.00,CLR,,0.00,WeatherDisplay:10.37,2013-04-02 03:59:00,